Location: Kapuskasing
(49.3803°N, 82.4001°W)
Time: 15:20:21
(UTC-05:00)

RS-44 - Pass Details

Date: 20 December 2025
Orbit: 1174 x 1511 km, 82.5° (Epoch: 21 January)

Event Time Altitude Azimuth Distance (km) Brightness Sun altitude
Exits shadow 02:15:07 11° 7° (N) 3,447 ? -56.5°
Drops below altitude 10° 02:15:27 10° 7° (N) 3,560 ? -56.5°
Sets 02:18:17 0° 10° (N) 4,501 ? -56.1°
